Location: *
(46.0770°N, 1.6444°E)
Time: 17:07:19
(UTC+00:00)

Meteor 2-17 Rocket - Pass Details

Date: 16 September 2019
Orbit: 934 x 957 km, 82.5° (Epoch: 19 October)

Event Time Altitude Azimuth Distance (km) Brightness Sun altitude
Rises 20:14:56 0° 349° (N) 3,622 8.1 -22.5°
Reaches altitude 10° 20:17:26 10° 348° (NNW) 2,670 7.3 -22.9°
Maximum altitude 20:23:31 76° 265° (W) 970 4.5 -23.8°
Enters shadow 20:26:44 29° 184° (S) 1,637 5.4 -24.2°
